Narathiwat Airport
VTSC : now visible

Airfield :











YOU CAN JOIN US ON...

 
LOGIN :

Register | Disclaimer

   EN    FR    IT 

 









Legend :    VFR   Marginal VFR   IFR   Intensive IFR   Very Intensive IFR
Visi :
Ceiling :
>= 8 km
>= 3000ft
5 to 8 km
1000 to 3000 ft
1500m to 5 km
500 to 1000 ft
800 to 1500m
200 to 500 ft
< 800m
< 200 ft
Symbols :   Thunderstorms  Fog  Heavy snow  Heavy precipitations  Wind > 20 kt






- Airport Elevation : 16 ft
- IATA code : NAW


VTSC - Narathiwat

CURRENT METAR :
  • 251200Z 22003KT 180V320 9999 FEW020 25/24 Q1010 NOSIG

TAF TAF VTSC
Valid from the 25 at 12:00 until the 26 at 12:00 UTC


251100Z 2512/2612 32005KT 9999 SCT020 BKN100
TEMPO 2512/2518 5000 RA SCT015 BKN100
TEMPO 2606/2612 VRB10G20KT 5000 TSRA FEW016CB SCT018 BKN100
VTBB FIR / Asia



MET'MAP, your aeronautical weather chart ! - Copyright ORBIFLY December 2007 - Disclaimer

ORBIFLY MET'MAP TEAM :

Programming & Development : Alexandra Zaïnal
Concept & original design : Baudouin d'Aumeries
Assistance for programming : Marc-Olivier Méhu
Technical & hardware support : Manuel Goepfert

Contact : metmap@orbifly.com




SOURCES & CREDITS :

   NOAA       Earth
Advisory